SAS56M ENZV-ENGM

Flight info

Callsign SAS56M
Flight time 0h 52m
Altitude 29000
Route UPLEV1F UPLEV DCT OSKOM DCT RIPAM RIPAM4M
Aircraft E195/M-SDE3GILORVW/S

Departure

Time 2026-05-07 12:28
Airport Stavanger Airport, Sola (ENZV)

Arrival

Time 2026-05-07 13:20
Airport Oslo-Gardermoen International Airport (ENGM)
Time Latitude Longitude Altitude Speed Heading
2026-05-07 12:22 58.88040 5.63061 26 ft 0 kts 315°
2026-05-07 12:24 58.88040 5.63060 26 ft 0 kts 321°
2026-05-07 12:24 58.88043 5.63059 26 ft 0 kts 356°
2026-05-07 12:24 58.88047 5.63078 26 ft 4 kts 89°
2026-05-07 12:24 58.88042 5.63184 27 ft 11 kts 109°
2026-05-07 12:25 58.87981 5.63345 29 ft 18 kts 150°
2026-05-07 12:25 58.87849 5.63295 26 ft 21 kts 190°
2026-05-07 12:25 58.87696 5.63288 26 ft 22 kts 181°
2026-05-07 12:25 58.87536 5.63292 26 ft 23 kts 179°
2026-05-07 12:26 58.87370 5.63297 26 ft 24 kts 180°
2026-05-07 12:26 58.87198 5.63304 26 ft 25 kts 179°
2026-05-07 12:26 58.87048 5.63325 28 ft 17 kts 158°
2026-05-07 12:26 58.86957 5.63480 29 ft 17 kts 115°
2026-05-07 12:27 58.86951 5.63700 33 ft 13 kts 85°
2026-05-07 12:27 58.87017 5.63800 32 ft 14 kts
2026-05-07 12:27 58.87208 5.63791 32 ft 61 kts 359°
2026-05-07 12:27 58.87925 5.63772 30 ft 142 kts 359°
2026-05-07 12:28 58.89077 5.63767 359 ft 180 kts 359°
2026-05-07 12:28 58.90327 5.63760 1295 ft 188 kts 359°
2026-05-07 12:28 58.91585 5.63711 2267 ft 185 kts
2026-05-07 12:28 58.92922 5.63664 2869 ft 203 kts
2026-05-07 12:29 58.94375 5.63616 3486 ft 220 kts
2026-05-07 12:29 58.95952 5.63565 4123 ft 237 kts
2026-05-07 12:29 58.97665 5.63511 4659 ft 261 kts
2026-05-07 12:29 58.99521 5.63453 5398 ft 276 kts
2026-05-07 12:30 59.01348 5.64366 6371 ft 278 kts 35°
2026-05-07 12:30 59.02566 5.67110 7402 ft 276 kts 70°
2026-05-07 12:30 59.02770 5.70766 8346 ft 277 kts 104°
2026-05-07 12:30 59.02168 5.74287 9182 ft 283 kts 112°
2026-05-07 12:31 59.01542 5.77940 9992 ft 291 kts 104°
2026-05-07 12:31 59.01333 5.81849 10762 ft 299 kts 91°
2026-05-07 12:31 59.01446 5.85920 11459 ft 311 kts 85°
2026-05-07 12:31 59.01718 5.90154 12098 ft 323 kts 82°
2026-05-07 12:32 59.02068 5.94504 12731 ft 335 kts 81°
2026-05-07 12:32 59.02458 5.98975 13469 ft 342 kts 80°
2026-05-07 12:32 59.02864 6.03510 14297 ft 347 kts 80°
2026-05-07 12:32 59.03281 6.08115 15097 ft 351 kts 80°
2026-05-07 12:33 59.04129 6.17516 16578 ft 361 kts 80°
2026-05-07 12:33 59.04564 6.22356 17306 ft 366 kts 80°
2026-05-07 12:33 59.04998 6.27213 17997 ft 372 kts 80°
2026-05-07 12:34 59.05438 6.32144 18668 ft 377 kts 80°
2026-05-07 12:34 59.05882 6.37155 19368 ft 382 kts 79°
2026-05-07 12:34 59.06335 6.42292 20062 ft 387 kts 79°
2026-05-07 12:34 59.06788 6.47458 20719 ft 392 kts 79°
2026-05-07 12:35 59.07241 6.52642 21362 ft 397 kts 79°
2026-05-07 12:35 59.07704 6.57956 21992 ft 402 kts 79°
2026-05-07 12:35 59.08171 6.63353 22630 ft 406 kts 79°
2026-05-07 12:35 59.08633 6.68719 23226 ft 410 kts 79°
2026-05-07 12:36 59.09105 6.74230 23815 ft 415 kts 79°
2026-05-07 12:36 59.09570 6.79692 24366 ft 420 kts 79°
2026-05-07 12:36 59.10046 6.85300 24952 ft 423 kts 79°
2026-05-07 12:36 59.10552 6.91010 25555 ft 427 kts 78°
2026-05-07 12:37 59.11061 6.96694 26117 ft 431 kts 78°
2026-05-07 12:37 59.11573 7.02449 26637 ft 436 kts 79°
2026-05-07 12:37 59.12092 7.08305 27175 ft 440 kts 79°
2026-05-07 12:37 59.12604 7.14125 27683 ft 444 kts 79°
2026-05-07 12:38 59.13129 7.20114 28189 ft 448 kts 78°
2026-05-07 12:38 59.13647 7.26064 28688 ft 452 kts 78°
2026-05-07 12:38 59.14167 7.32070 28968 ft 452 kts 78°
2026-05-07 12:38 59.14697 7.38206 29009 ft 466 kts 78°
2026-05-07 12:39 59.15236 7.44499 29026 ft 480 kts 78°
2026-05-07 12:39 59.15780 7.50890 29021 ft 484 kts 78°
2026-05-07 12:39 59.16866 7.63776 29022 ft 483 kts 78°
2026-05-07 12:40 59.17937 7.76632 29010 ft 484 kts 79°
2026-05-07 12:40 59.19004 7.89615 29027 ft 483 kts 79°
2026-05-07 12:41 59.20052 8.02523 29034 ft 483 kts 79°
2026-05-07 12:41 59.21091 8.15486 29036 ft 483 kts 79°
2026-05-07 12:42 59.22115 8.28428 29028 ft 483 kts 79°
2026-05-07 12:42 59.23127 8.41385 29046 ft 483 kts 79°
2026-05-07 12:43 59.24123 8.54322 29062 ft 484 kts 79°
2026-05-07 12:43 59.25110 8.67314 29054 ft 484 kts 80°
2026-05-07 12:44 59.25588 8.73682 28985 ft 467 kts 80°
2026-05-07 12:44 59.26051 8.79877 28521 ft 456 kts 79°
2026-05-07 12:44 59.26503 8.85965 27783 ft 453 kts 80°
2026-05-07 12:44 59.26950 8.92033 26982 ft 451 kts 80°
2026-05-07 12:45 59.27390 8.98025 26220 ft 448 kts 80°
2026-05-07 12:45 59.27826 9.04029 25504 ft 443 kts 80°
2026-05-07 12:45 59.28254 9.09905 24871 ft 437 kts 79°
2026-05-07 12:45 59.29155 9.15439 24119 ft 425 kts 57°
2026-05-07 12:46 59.30964 9.19778 23494 ft 410 kts 33°
2026-05-07 12:46 59.33396 9.22325 23035 ft 396 kts 11°
2026-05-07 12:46 59.36050 9.23494 22582 ft 391 kts 12°
2026-05-07 12:46 59.38479 9.25836 22129 ft 396 kts 28°
2026-05-07 12:47 59.40734 9.28992 21650 ft 396 kts 33°
2026-05-07 12:47 59.42871 9.32300 21170 ft 403 kts 34°
2026-05-07 12:47 59.45036 9.35772 20526 ft 402 kts 35°
2026-05-07 12:47 59.47190 9.39269 19594 ft 403 kts 36°
2026-05-07 12:48 59.49336 9.42771 18704 ft 403 kts 36°
2026-05-07 12:48 59.51452 9.46236 17913 ft 399 kts 36°
2026-05-07 12:48 59.53579 9.49727 17203 ft 394 kts 36°
2026-05-07 12:48 59.55633 9.53103 16528 ft 388 kts 36°
2026-05-07 12:49 59.57677 9.56469 15817 ft 383 kts 37°
2026-05-07 12:49 59.59703 9.59808 15117 ft 378 kts 37°
2026-05-07 12:49 59.61697 9.63102 14393 ft 374 kts 37°
2026-05-07 12:49 59.63678 9.66378 13693 ft 370 kts 38°
2026-05-07 12:50 59.65645 9.69638 13025 ft 369 kts 38°
2026-05-07 12:50 59.67574 9.72840 12455 ft 361 kts 38°
2026-05-07 12:50 59.69476 9.76002 12077 ft 356 kts 38°
2026-05-07 12:50 59.71363 9.79141 12069 ft 356 kts 38°
2026-05-07 12:51 59.73257 9.82300 11969 ft 352 kts 38°
2026-05-07 12:51 59.75122 9.85413 11918 ft 355 kts 38°
2026-05-07 12:51 59.77021 9.88588 11911 ft 359 kts 38°
2026-05-07 12:51 59.78898 9.91732 11854 ft 358 kts 38°
2026-05-07 12:52 59.80793 9.94911 11844 ft 356 kts 38°
2026-05-07 12:52 59.82676 9.98074 11822 ft 356 kts 38°
2026-05-07 12:52 59.84568 10.01259 11814 ft 356 kts 38°
2026-05-07 12:52 59.86448 10.04426 11799 ft 355 kts 38°
2026-05-07 12:53 59.88325 10.07593 11805 ft 356 kts 38°
2026-05-07 12:53 59.90221 10.10797 11802 ft 356 kts 38°
2026-05-07 12:53 59.92049 10.13893 11631 ft 343 kts 38°
2026-05-07 12:53 59.93865 10.16972 10942 ft 341 kts 38°
2026-05-07 12:54 59.95648 10.19998 10081 ft 343 kts 38°
2026-05-07 12:54 59.97448 10.23058 9329 ft 342 kts 38°
2026-05-07 12:54 59.99242 10.26112 8658 ft 337 kts 39°
2026-05-07 12:54 60.00967 10.29057 8617 ft 314 kts 39°
2026-05-07 12:55 60.02559 10.31778 8605 ft 294 kts 39°
2026-05-07 12:55 60.04064 10.34353 8501 ft 279 kts 39°
2026-05-07 12:55 60.05510 10.36827 8165 ft 274 kts 39°
2026-05-07 12:55 60.06952 10.39298 7702 ft 274 kts 39°
2026-05-07 12:56 60.08384 10.41756 7221 ft 274 kts 39°
2026-05-07 12:56 60.09819 10.44221 6761 ft 273 kts 40°
2026-05-07 12:56 60.11253 10.46687 6321 ft 271 kts 40°
2026-05-07 12:56 60.12680 10.49146 5894 ft 268 kts 40°
2026-05-07 12:57 60.14085 10.51568 5460 ft 267 kts 40°
2026-05-07 12:57 60.15473 10.53964 5057 ft 268 kts 40°
2026-05-07 12:57 60.16893 10.56419 5007 ft 272 kts 40°
2026-05-07 12:57 60.18297 10.58848 4981 ft 265 kts 40°
2026-05-07 12:58 60.19693 10.61267 4980 ft 265 kts 40°
2026-05-07 12:58 60.21174 10.63834 5012 ft 297 kts 40°
2026-05-07 12:58 60.22763 10.66593 4999 ft 309 kts 40°
2026-05-07 12:58 60.24391 10.69424 4981 ft 310 kts 40°
2026-05-07 12:59 60.26022 10.72263 4983 ft 309 kts 41°
2026-05-07 12:59 60.27622 10.75053 4977 ft 308 kts 41°
2026-05-07 12:59 60.29242 10.77882 4984 ft 308 kts 41°
2026-05-07 12:59 60.30867 10.80724 4986 ft 308 kts 41°
2026-05-07 13:00 60.32478 10.83544 4987 ft 307 kts 41°
2026-05-07 13:00 60.34069 10.86334 4983 ft 307 kts 41°
2026-05-07 13:00 60.35685 10.89171 4984 ft 307 kts 41°
2026-05-07 13:00 60.37294 10.92000 4988 ft 307 kts 41°
2026-05-07 13:01 60.38901 10.94829 4988 ft 307 kts 41°
2026-05-07 13:01 60.40499 10.97646 4986 ft 307 kts 41°
2026-05-07 13:01 60.42093 11.00459 4982 ft 302 kts 41°
2026-05-07 13:01 60.43615 11.03160 4967 ft 280 kts 43°
2026-05-07 13:02 60.44562 11.06371 4987 ft 265 kts 79°
2026-05-07 13:02 60.44403 11.10016 5027 ft 266 kts 111°
2026-05-07 13:02 60.43492 11.13250 5020 ft 267 kts 127°
2026-05-07 13:02 60.42316 11.16220 5000 ft 269 kts 131°
2026-05-07 13:03 60.40919 11.18652 4999 ft 267 kts 157°
2026-05-07 13:03 60.39166 11.19181 4806 ft 257 kts 190°
2026-05-07 13:03 60.37369 11.18281 4498 ft 263 kts 197°
2026-05-07 13:03 60.35687 11.17317 4122 ft 247 kts 197°
2026-05-07 13:04 60.34115 11.16406 3891 ft 216 kts 197°
2026-05-07 13:04 60.32772 11.15625 3570 ft 193 kts 197°
2026-05-07 13:04 60.31519 11.14896 3124 ft 185 kts 197°
2026-05-07 13:04 60.30316 11.14188 2745 ft 177 kts 199°
2026-05-07 13:05 60.29148 11.13434 2280 ft 174 kts 200°
2026-05-07 13:05 60.28058 11.12744 2080 ft 154 kts 198°
2026-05-07 13:05 60.27071 11.12233 1817 ft 142 kts 198°
2026-05-07 13:05 60.26136 11.11742 1469 ft 141 kts 197°
2026-05-07 13:06 60.25187 11.11196 1409 ft 140 kts 200°
2026-05-07 13:06 60.24244 11.10579 1719 ft 148 kts 201°
2026-05-07 13:06 60.23268 11.09876 2105 ft 158 kts 203°
2026-05-07 13:06 60.22211 11.09173 2289 ft 161 kts 196°
2026-05-07 13:07 60.21138 11.08543 2486 ft 160 kts 196°
2026-05-07 13:07 60.20074 11.07972 2709 ft 167 kts 197°
2026-05-07 13:07 60.18855 11.07220 3148 ft 203 kts 198°
2026-05-07 13:07 60.17411 11.06288 3775 ft 232 kts 207°
2026-05-07 13:08 60.16205 11.04195 4543 ft 230 kts 229°
2026-05-07 13:08 60.15156 11.01823 4468 ft 223 kts 229°
2026-05-07 13:08 60.14101 10.99442 4730 ft 244 kts 229°
2026-05-07 13:08 60.12993 10.96953 4977 ft 235 kts 229°
2026-05-07 13:09 60.12112 10.94362 4967 ft 220 kts 256°
2026-05-07 13:09 60.12213 10.91403 5036 ft 218 kts 298°
2026-05-07 13:09 60.13286 10.89366 5051 ft 221 kts 340°
2026-05-07 13:09 60.14799 10.88836 5040 ft 223 kts 354°
2026-05-07 13:10 60.16345 10.88605 5007 ft 223 kts 355°
2026-05-07 13:10 60.17904 10.88375 5003 ft 222 kts 355°
2026-05-07 13:10 60.19442 10.88143 5003 ft 223 kts 355°
2026-05-07 13:10 60.20973 10.87903 5001 ft 223 kts 355°
2026-05-07 13:11 60.22494 10.88147 4957 ft 218 kts 14°
2026-05-07 13:11 60.23946 10.88943 4708 ft 215 kts 15°
2026-05-07 13:11 60.25402 10.89773 4346 ft 217 kts 15°
2026-05-07 13:11 60.26854 10.90601 4049 ft 221 kts 15°
2026-05-07 13:12 60.28323 10.91440 4014 ft 220 kts 15°
2026-05-07 13:12 60.29805 10.92288 4004 ft 220 kts 15°
2026-05-07 13:12 60.31256 10.93114 4000 ft 219 kts 15°
2026-05-07 13:12 60.32733 10.93954 4002 ft 220 kts 15°
2026-05-07 13:13 60.34190 10.94779 4001 ft 220 kts 15°
2026-05-07 13:13 60.35691 10.95629 4017 ft 227 kts 15°
2026-05-07 13:13 60.37220 10.96489 4005 ft 231 kts 15°
2026-05-07 13:13 60.38781 10.97367 3999 ft 231 kts 15°
2026-05-07 13:14 60.40328 10.98240 3997 ft 231 kts 17°
2026-05-07 13:14 60.41610 11.00016 4004 ft 226 kts 57°
2026-05-07 13:14 60.41978 11.02924 3998 ft 209 kts 98°
2026-05-07 13:14 60.41671 11.05661 3976 ft 194 kts 105°
2026-05-07 13:15 60.41317 11.08242 3989 ft 188 kts 105°
2026-05-07 13:15 60.40971 11.10751 4029 ft 178 kts 105°
2026-05-07 13:15 60.40640 11.13150 3728 ft 179 kts 105°
2026-05-07 13:15 60.40293 11.15618 3534 ft 187 kts 110°
2026-05-07 13:16 60.39463 11.17568 3516 ft 191 kts 155°
2026-05-07 13:16 60.38173 11.18162 3528 ft 191 kts 172°
2026-05-07 13:16 60.36868 11.17984 3499 ft 189 kts 196°
2026-05-07 13:16 60.35591 11.17262 3493 ft 190 kts 197°
2026-05-07 13:17 60.34319 11.16530 3281 ft 192 kts 197°
2026-05-07 13:17 60.33045 11.15792 3058 ft 188 kts 197°
2026-05-07 13:17 60.31842 11.15094 2796 ft 175 kts 197°
2026-05-07 13:17 60.30737 11.14453 2603 ft 157 kts 197°
2026-05-07 13:18 60.29735 11.13871 2358 ft 145 kts 197°
2026-05-07 13:18 60.28789 11.13322 2157 ft 139 kts 197°
2026-05-07 13:18 60.27866 11.12786 1985 ft 140 kts 197°
2026-05-07 13:18 60.26915 11.12235 1813 ft 146 kts 196°
2026-05-07 13:19 60.25916 11.11657 1612 ft 150 kts 196°
2026-05-07 13:19 60.24925 11.11093 1414 ft 150 kts 196°
2026-05-07 13:19 60.23921 11.10510 1209 ft 150 kts 197°
2026-05-07 13:19 60.22934 11.09938 965 ft 146 kts 197°
2026-05-07 13:20 60.21991 11.09395 789 ft 141 kts 198°
2026-05-07 13:20 60.21043 11.08843 689 ft 136 kts 196°
2026-05-07 13:20 60.20275 11.08395 687 ft 90 kts 196°
2026-05-07 13:20 60.19827 11.08146 687 ft 38 kts 191°
2026-05-07 13:21 60.19644 11.08121 687 ft 24 kts 172°
2026-05-07 13:21 60.19582 11.08228 687 ft 7 kts 115°
2026-05-07 13:21 60.19571 11.08321 687 ft 7 kts 84°
2026-05-07 13:21 60.19561 11.08421 687 ft 8 kts 111°
2026-05-07 13:22 60.19565 11.08539 687 ft 9 kts 47°
2026-05-07 13:22 60.19634 11.08595 687 ft 11 kts 14°
2026-05-07 13:22 60.19724 11.08644 687 ft 15 kts 17°
2026-05-07 13:22 60.19767 11.08796 687 ft 14 kts 101°
2026-05-07 13:23 60.19739 11.09001 687 ft 15 kts 106°
2026-05-07 13:23 60.19707 11.09220 687 ft 17 kts 106°
2026-05-07 13:23 60.19675 11.09455 687 ft 18 kts 104°
2026-05-07 13:23 60.19630 11.09695 687 ft 15 kts 117°
2026-05-07 13:24 60.19604 11.09853 687 ft 8 kts 106°
2026-05-07 13:24 60.19593 11.09929 687 ft 0 kts 105°
2026-05-07 13:24 60.19593 11.09930 687 ft 0 kts 105°